Location: Cieszkowy
(50.3290°N, 20.5336°E)
Time: 00:46:10
(UTC+00:00)

BlueWalker 3 - Pass Details

Date: 15 June 2024
Orbit: 480 x 491 km, 53.2° (Epoch: 18 July)

Event Time Altitude Azimuth Distance (km) Brightness Sun altitude
Rises 01:08:56 0° 283° (WNW) 2,539 5.3 -9.2°
Reaches altitude 10° 01:11:08 10° 288° (WNW) 1,660 4.4 -9.0°
Maximum altitude 01:14:50 57° 8° (N) 575 2.6 -8.6°
Drops below altitude 10° 01:18:31 10° 88° (E) 1,661 5.2 -8.3°
Sets 01:20:43 0° 92° (E) 2,541 6.0 -8.1°
